Regional Weather Roundup
Issued by NWS

Home | Current Version | Previous Version | Text Only | Print | Product List | Glossary Off
Versions: 1 2 3 4 5 6 7 8 9 10 11 12 13 14 15 16 17 18 19 20 21 22 23 24 25 26 27 28 29 30 31 32 33 34 35 36 37 38 39 40 41 42 43 44 45 46 47 48 49 50

000
ASUS43 KMKX 040111
RWRWI

WISCONSIN REGIONAL WEATHER ROUNDUP
NATIONAL WEATHER SERVICE MILWAUKEE/SULLIVAN WI
800 PM CDT FRI JUL 03 2015

NOTE: "FAIR" INDICATES FEW OR NO CLOUDS BELOW 12,000 FEET WITH NO
SIGNIFICANT WEATHER AND/OR OBSTRUCTIONS TO VISIBILITY.

WIZ001-002-006>008-014>016-023>028-040200-
NORTHWEST WISCONSIN

CITY           SKY/WX    TMP DP  RH WIND       PRES   REMARKS
SUPERIOR ARPT  MOCLDY    76  59  56 N3        29.85S
ASHLAND        PTCLDY    75  66  73 W3        29.85S HAZE
HAYWARD        CLOUDY    73  64  73 SW5       29.89F
SIREN          CLEAR     74  64  69 SW3       29.89S
CUMBERLAND     PTCLDY    70  59  68 SW6       29.90S
RICE LAKE      PTCLDY    73  60  63 SW5       29.91S
CHETEK         MOCLDY    73  62  68 S3        29.90S
LADYSMITH      MOCLDY    71  60  67 SW5       29.92S
EAU CLAIRE     PTCLDY    73  58  59 SW6       29.89F
MENOMONIE      PTCLDY    73  58  60 SW6       29.90F
NEW RICHMOND   CLEAR     72  60  67 SW5       29.91R
OSCEOLA        PTCLDY    75  62  63 CALM      29.93R
$$

WIZ003>005-009-010-017-018-040200-
NORTH CENTRAL WISCONSIN

CITY           SKY/WX    TMP DP  RH WIND       PRES   REMARKS
MANITOWISH WTR MOCLDY    68  64  84 SW5       29.88F
ARBOR VITAE    PTCLDY    72  63  72 SW6       29.89S
WOODRUFF       PTCLDY    72  63  72 SW6       29.89S
RHINELANDER    CLEAR     69  59  70 SW3       29.91S
EAGLE RIVER    PTCLDY    68  58  71 SW3       29.89S
LAND O LAKES   PTCLDY    69  61  74 CALM      29.89F
PHILLIPS       CLEAR     70  61  72 SW6       29.89F
TOMAHAWK       CLEAR     68  58  69 CALM      29.91S
MEDFORD        CLEAR     68  58  70 SW5       29.92S
MERRILL        PTCLDY    71  59  66 W6        29.91F
$$

WIZ029-030-035-036-043>047-040200-
CENTRAL WISCONSIN

CITY           SKY/WX    TMP DP  RH WIND       PRES   REMARKS
WAUSAU         MOCLDY    73  55  53 W8        29.89F
MOSINEE        CLOUDY    70  57  64 W6        29.92S
MARSHFIELD     PTCLDY    71  56  58 W5        29.92R
STEVENS POINT  PTCLDY    71  56  60 CALM      29.91S
WAUPACA        CLEAR     73  58  60 SW3       29.90S
WAUTOMA        CLEAR     73  58  59 SW3       29.91S
WISC RAPIDS    CLEAR     72  56  57 W5        29.92S
CAMP DOUGLAS   CLEAR     70  67  92 W6        29.91S
$$

WIZ011>013-019>022-031-037>040-048>050-040200-
NORTHEAST WISCONSIN

CITY           SKY/WX    TMP DP  RH WIND       PRES   REMARKS
ANTIGO         PTCLDY    66  58  73 W6        29.91F
SHAWANO        PTCLDY    75  56  52 CALM      29.89S
OCONTO         MOCLDY    71  56  59 S3        29.87F
STURGEON BAY   MOCLDY    68  54  60 S7        29.91S
GREEN BAY      MOCLDY    72  56  57 S3        29.89S
MANITOWOC      CLEAR     67  53  61 MISG      29.91S
APPLETON       MOCLDY    70  55  60 SW5       29.91S
CLINTONVILLE   MOCLDY    73  55  53 CALM      29.89S
OSHKOSH        CLEAR     70  56  61 SW3       29.90S
$$

WIZ032>034-041-042-053>061-040200-
SOUTHWEST WISCONSIN

CITY           SKY/WX    TMP DP  RH WIND       PRES   REMARKS
LA CROSSE      CLEAR     74  60  61 SW5       29.91R
SPARTA         CLEAR     73  57  57 CALM      29.92S
VIROQUA        CLEAR     70  59  69 W3        29.94S
BOSCOBEL       CLEAR     73  60  63 CALM      29.92F
PRAIRIE DU CHI CLEAR     72  58  61 CALM      29.92S
PLATTEVILLE    CLEAR     70  55  59 W3        29.94S
$$

WIZ056-057-062-063-064-067-068-040200-
SOUTH CENTRAL WISCONSIN

CITY           SKY/WX    TMP DP  RH WIND       PRES   REMARKS
REEDSBURG      CLEAR     70  59  69 SW5       29.92S
BARABOO/DELLS  CLEAR     69  57  65 CALM      29.92S
LONE ROCK      CLEAR     71  58  63 CALM      29.93R
MINERAL POINT  CLEAR     70  55  60 CALM      29.94S
MADISON        CLEAR     71  54  54 CALM      29.92S
MIDDLETON      CLEAR     69  56  62 CALM      29.93S
WATERTOWN      CLEAR     71  54  55 W3        29.91S
MONROE         CLEAR     70  52  52 W5        29.93F
JANESVILLE     CLEAR     72  57  60 NW6       29.92S
$$

WIZ051-052-058>065-066-070>072-040200-
SOUTHEAST WISCONSIN

CITY           SKY/WX    TMP DP  RH WIND       PRES   REMARKS
MILWAUKEE      MOCLDY    65  53  65 SE5       29.92S
WAUKESHA       CLEAR     70  50  49 CALM      29.93S
MILWAUKEE/TIMM CLEAR     70  48  46 SE6       29.92S
RACINE         CLEAR     66  51  58 S6        29.93F
BURLINGTON     CLEAR     67  56  68 CALM      29.92S
KENOSHA        CLEAR     67  53  61 SE7       29.92F
FOND DU LAC    CLEAR     71  54  54 SW5       29.91S
SHEBOYGAN      CLEAR     65  52  62 S7        29.91S
WEST BEND      CLEAR     66  50  55 CALM      29.92S
JUNEAU         CLEAR     68  54  61 SW3       29.93S
$$

LSZ147-162-040200-
LAKE SUPERIOR

STATION/POSITION TIME  TEMP    WIND        PRES    WAVE
                       AIR SEA DIR/SP/G            HT/PER
                 (UTC) (F)     (DEG/KT/KT) (MB)    (FT/S)
W MID LAKE BUOY  0050   53 39  340/  8/ 12 1010.5R   1/ 4
DEVILS ISLAND    0100   71     260/  6/  8 1010.4R
SAXON HARBOR     0000   68        CALM     1010.2F
$$

LMZ867-665-643>646-040200-
LAKE MICHIGAN

STATION/POSITION TIME  TEMP    WIND        PRES    WAVE
                       AIR SEA DIR/SP/G            HT/PER
                 (UTC) (F)     (DEG/KT/KT) (MB)    (FT/S)
CHAMBERS ISLAND  0000   71     180/  7/ 11 1011.5F
S GREEN BAY BUOY 0100   71 69  210/  8/ 12 1013.2F
N MID LAKE BUOY  0050   51 43  210/ 12/ 14 1011.8F   2/ 4
NORTHPORT PIER   0000   66     160/  4/  8 1011.5F
SISTER BAY       2314   71     200/  9/ 11   N/A
ALGOMA LAKESHORE 0010          220/ 12/ 13   N/A
KEWAUNEE LAKESHO 0000   65     180/ 10/ 11 1011.9F
SHEBOYGAN LAKESH 0100   65     190/  8/  9 1013.2S
PORT WASHINGTON  0040   64     190/  4/  6 1013.5F
ATWATER BUOY     0100   62 62  170/  6/  6 1014.4F
MILWAUKEE LAKESH 0000   62     140/  3/  4   N/A
KENOSHA   LAKESH 0100   63     180/  5/  6 1012.9F
$$

TC  - TEMPERATURE IN CELSIUS
VSB - VISIBILITY IN STATUTE MILES
WCI - WIND CHILL INDEX
HX  - HEAT INDEX




USA.gov is the U.S. government's official web portal to all federal, state and local government web resources and services.